星链-1255 (STARLINK-1255 )

导读

STARLINK-1255是美国太空探索技术公司星链星座的一员,于2020年3月18日发射。星链计划旨在构建全球卫星互联网,为偏远地区、海上等网络覆盖盲区提供网络接入服务。该卫星入轨后承担星座组网任务,助力星链低轨卫星星座逐步完成全球服务覆盖能力的搭建。

基本信息
目录编号:
45399
目录名称:
STARLINK-1255
国际标识:
2020-019AR
轨道中心:
EARTH
卫星名称:
星链-1255
卫星全名:
星链-1255 (STARLINK-1255 )
卫星状态:
在轨 (已飞行2278 天)
发射日期:
2020-03-18 UTC
国别 :
美国 (US)
星等 :
--
轨道信息
数据来源 国际轨道数据
星历时间: 2026-06-12T14:11:13+0800
17小时前
查看轨道信息
半长轴: 6747.918km
偏心率: 0.0004334
轨道倾角: 53.035°
近地点辐角 126.361°
升交点赤经 2.060°
平近点角 233.780°
近地点: 366.856km
远地点: 372.706km
周期: 91.942分钟
每日圈数: 15.662031
详细信息
固有亮度:
5
最大亮度:
2.5
卫星平台:
Starlink V1.0
覆盖范围:
全球
运营商:
太空探索技术公司
运营商所在国:
美国
制造商(研发单位):
太空探索技术公司
制造商所在国:
美国
使用方式:
暂无
卫星简介
星链(Starlink)计划是由太空探索技术公司(SpaceX)提出的一个巨型低轨卫星互联网星座项目,计划在2019年至2024年间在太空搭建由约1.2万颗卫星组成的“星链”网络,其中1584颗将部署在地球上空550千米处的近地轨道,并从2020年开始工作。该卫星仍在工作。
2D轨道图
3D轨道图
轨道高度分析图
轨道倾角分析图
轨道综合分析图
查看轨道综合分析图